Time,TemperatureF,DewpointF,PressureIn,WindDirection,WindDirectionDegrees,WindSpeedMPH,WindSpeedGustMPH,Humidity,HourlyPrecipIn,Conditions,Clouds,dailyrainin,SoftwareType,DateUTC
2013-08-20 00:09:00,65.8,65.0,30.14,South,191,0.0,0.0,96,0.00,,,0.00,weatherlink.com 1.10,2013-08-20 04:09:00,
2013-08-20 00:24:00,65.3,64.0,30.14,South,191,0.0,0.0,96,0.00,,,0.00,weatherlink.com 1.10,2013-08-20 04:24:00,
2013-08-20 00:39:00,65.0,64.0,30.14,South,191,0.0,0.0,96,0.00,,,0.00,weatherlink.com 1.10,2013-08-20 04:39:00,
2013-08-20 00:54:00,65.1,64.0,30.14,South,191,0.0,0.0,96,0.00,,,0.00,weatherlink.com 1.10,2013-08-20 04:54:00,
2013-08-20 01:09:00,64.7,64.0,30.14,South,191,0.0,0.0,96,0.00,,,0.00,weatherlink.com 1.10,2013-08-20 05:09:00,
2013-08-20 01:24:00,64.6,64.0,30.13,South,191,0.0,0.0,96,0.00,,,0.00,weatherlink.com 1.10,2013-08-20 05:24:00,
2013-08-20 01:39:00,64.3,63.0,30.13,South,191,0.0,0.0,96,0.00,,,0.00,weatherlink.com 1.10,2013-08-20 05:39:00,
2013-08-20 01:54:00,64.1,63.0,30.13,South,191,0.0,0.0,96,0.00,,,0.00,weatherlink.com 1.10,2013-08-20 05:54:00,
2013-08-20 02:09:00,63.7,63.0,30.13,South,191,0.0,0.0,96,0.00,,,0.00,weatherlink.com 1.10,2013-08-20 06:09:00,
2013-08-20 02:24:00,63.7,63.0,30.12,South,191,0.0,0.0,96,0.00,,,0.00,weatherlink.com 1.10,2013-08-20 06:24:00,
2013-08-20 02:39:00,63.5,62.0,30.12,South,191,0.0,0.0,96,0.00,,,0.00,weatherlink.com 1.10,2013-08-20 06:39:00,
2013-08-20 02:54:00,63.8,63.0,30.12,South,191,0.0,0.0,97,0.00,,,0.00,weatherlink.com 1.10,2013-08-20 06:54:00,
2013-08-20 03:09:00,63.9,63.0,30.12,South,191,0.0,0.0,97,0.00,,,0.00,weatherlink.com 1.10,2013-08-20 07:09:00,
2013-08-20 03:24:00,64.1,63.0,30.12,South,191,0.0,0.0,97,0.00,,,0.00,weatherlink.com 1.10,2013-08-20 07:24:00,
2013-08-20 03:39:00,64.2,63.0,30.12,South,191,0.0,1.0,97,0.00,,,0.00,weatherlink.com 1.10,2013-08-20 07:39:00,
2013-08-20 03:54:00,64.1,63.0,30.12,South,191,0.0,0.0,97,0.00,,,0.00,weatherlink.com 1.10,2013-08-20 07:54:00,
2013-08-20 04:09:00,64.2,63.0,30.12,South,191,0.0,0.0,97,0.01,,,0.01,weatherlink.com 1.10,2013-08-20 08:09:00,
2013-08-20 04:24:00,64.4,64.0,30.12,South,191,0.0,0.0,97,0.01,,,0.01,weatherlink.com 1.10,2013-08-20 08:24:00,
2013-08-20 04:39:00,64.7,64.0,30.12,South,191,0.0,0.0,97,0.01,,,0.01,weatherlink.com 1.10,2013-08-20 08:39:00,
2013-08-20 04:54:00,64.9,64.0,30.12,South,191,0.0,0.0,97,0.01,,,0.01,weatherlink.com 1.10,2013-08-20 08:54:00,
2013-08-20 05:09:00,65.1,64.0,30.12,South,191,0.0,0.0,97,0.00,,,0.01,weatherlink.com 1.10,2013-08-20 09:09:00,
2013-08-20 05:24:00,64.8,64.0,30.12,South,191,0.0,0.0,97,0.00,,,0.01,weatherlink.com 1.10,2013-08-20 09:24:00,
2013-08-20 05:39:00,64.7,64.0,30.12,South,191,0.0,0.0,97,0.00,,,0.01,weatherlink.com 1.10,2013-08-20 09:39:00,
2013-08-20 05:54:00,64.8,64.0,30.12,South,191,0.0,0.0,97,0.00,,,0.01,weatherlink.com 1.10,2013-08-20 09:54:00,
2013-08-20 06:09:00,64.8,64.0,30.13,South,191,0.0,0.0,97,0.00,,,0.01,weatherlink.com 1.10,2013-08-20 10:09:00,
2013-08-20 06:24:00,65.0,64.0,30.13,South,191,0.0,0.0,97,0.00,,,0.01,weatherlink.com 1.10,2013-08-20 10:24:00,
2013-08-20 06:39:00,65.0,64.0,30.14,South,191,0.0,0.0,97,0.00,,,0.01,weatherlink.com 1.10,2013-08-20 10:39:00,
2013-08-20 06:54:00,65.1,64.0,30.15,South,191,0.0,0.0,97,0.00,,,0.01,weatherlink.com 1.10,2013-08-20 10:54:00,
2013-08-20 07:09:00,65.1,64.0,30.15,South,191,0.0,0.0,97,0.00,,,0.01,weatherlink.com 1.10,2013-08-20 11:09:00,
2013-08-20 07:24:00,65.4,65.0,30.15,South,191,0.0,0.0,97,0.00,,,0.01,weatherlink.com 1.10,2013-08-20 11:24:00,
2013-08-20 07:39:00,66.1,65.0,30.16,South,191,0.0,1.0,97,0.00,,,0.01,weatherlink.com 1.10,2013-08-20 11:39:00,
2013-08-20 07:54:00,66.5,66.0,30.16,South,191,0.0,1.0,97,0.00,,,0.01,weatherlink.com 1.10,2013-08-20 11:54:00,
2013-08-20 08:09:00,67.0,66.0,30.16,South,191,0.0,1.0,97,0.00,,,0.01,weatherlink.com 1.10,2013-08-20 12:09:00,
2013-08-20 08:24:00,67.3,67.0,30.16,South,191,0.0,1.0,97,0.00,,,0.01,weatherlink.com 1.10,2013-08-20 12:24:00,
2013-08-20 08:39:00,67.9,67.0,30.17,South,191,0.0,1.0,97,0.00,,,0.01,weatherlink.com 1.10,2013-08-20 12:39:00,
2013-08-20 08:54:00,68.3,68.0,30.17,South,191,0.0,1.0,97,0.00,,,0.01,weatherlink.com 1.10,2013-08-20 12:54:00,
2013-08-20 09:09:00,68.8,68.0,30.18,SSW,192,0.0,2.0,97,0.00,,,0.01,weatherlink.com 1.10,2013-08-20 13:09:00,
2013-08-20 09:24:00,69.2,68.0,30.18,South,191,0.0,2.0,97,0.00,,,0.01,weatherlink.com 1.10,2013-08-20 13:24:00,
2013-08-20 09:39:00,70.1,69.0,30.18,South,191,1.0,3.0,97,0.00,,,0.01,weatherlink.com 1.10,2013-08-20 13:39:00,
2013-08-20 09:55:00,70.3,69.0,30.18,SSW,195,0.0,3.0,97,0.00,,,0.01,weatherlink.com 1.10,2013-08-20 13:55:00,
2013-08-20 10:10:00,70.5,70.0,30.18,South,179,0.0,3.0,97,0.00,,,0.01,weatherlink.com 1.10,2013-08-20 14:10:00,
2013-08-20 10:25:00,71.0,70.0,30.19,SE,142,0.0,3.0,97,0.00,,,0.01,weatherlink.com 1.10,2013-08-20 14:25:00,
2013-08-20 10:40:00,71.6,71.0,30.19,SSW,210,0.0,1.0,97,0.00,,,0.01,weatherlink.com 1.10,2013-08-20 14:40:00,
2013-08-20 10:55:00,72.3,71.0,30.19,SSE,149,0.0,4.0,96,0.00,,,0.01,weatherlink.com 1.10,2013-08-20 14:55:00,
2013-08-20 11:10:00,73.7,72.0,30.19,WSW,240,1.0,3.0,94,0.00,,,0.01,weatherlink.com 1.10,2013-08-20 15:10:00,
2013-08-20 11:25:00,74.4,72.0,30.20,SSW,198,1.0,3.0,92,0.00,,,0.01,weatherlink.com 1.10,2013-08-20 15:25:00,
2013-08-20 11:40:00,76.2,74.0,30.20,SW,224,1.0,2.0,91,0.00,,,0.01,weatherlink.com 1.10,2013-08-20 15:40:00,
2013-08-20 11:55:00,78.2,74.0,30.19,North,352,0.0,3.0,87,0.00,,,0.01,weatherlink.com 1.10,2013-08-20 15:55:00,
2013-08-20 12:10:00,78.0,72.0,30.20,WSW,238,1.0,5.0,82,0.00,,,0.01,weatherlink.com 1.10,2013-08-20 16:10:00,
2013-08-20 12:25:00,78.9,74.0,30.20,WSW,248,2.0,4.0,84,0.00,,,0.01,weatherlink.com 1.10,2013-08-20 16:25:00,
2013-08-20 12:40:00,79.3,73.0,30.20,South,186,6.0,6.0,81,0.00,,,0.01,weatherlink.com 1.10,2013-08-20 16:40:00,
2013-08-20 12:55:00,79.8,74.0,30.20,SE,145,1.0,6.0,81,0.00,,,0.01,weatherlink.com 1.10,2013-08-20 16:55:00,
2013-08-20 13:10:00,79.3,73.0,30.19,SE,134,0.0,5.0,80,0.00,,,0.01,weatherlink.com 1.10,2013-08-20 17:10:00,
2013-08-20 13:25:00,80.1,73.0,30.19,East,88,1.0,6.0,79,0.00,,,0.01,weatherlink.com 1.10,2013-08-20 17:25:00,
2013-08-20 13:40:00,80.7,73.0,30.18,SW,218,0.0,7.0,77,0.00,,,0.01,weatherlink.com 1.10,2013-08-20 17:40:00,
2013-08-20 13:55:00,81.3,73.0,30.18,SE,134,3.0,7.0,75,0.00,,,0.01,weatherlink.com 1.10,2013-08-20 17:55:00,
2013-08-20 14:10:00,80.7,72.0,30.18,SSE,147,4.0,6.0,75,0.00,,,0.01,weatherlink.com 1.10,2013-08-20 18:10:00,
2013-08-20 14:25:00,80.9,72.0,30.18,SE,134,4.0,8.0,75,0.00,,,0.01,weatherlink.com 1.10,2013-08-20 18:25:00,
2013-08-20 14:40:00,80.9,73.0,30.17,SW,219,1.0,7.0,78,0.00,,,0.01,weatherlink.com 1.10,2013-08-20 18:40:00,
2013-08-20 14:55:00,81.1,71.0,30.17,SE,139,2.0,5.0,72,0.00,,,0.01,weatherlink.com 1.10,2013-08-20 18:55:00,
2013-08-20 15:10:00,81.0,71.0,30.17,SE,136,3.0,6.0,72,0.00,,,0.01,weatherlink.com 1.10,2013-08-20 19:10:00,
2013-08-20 15:25:00,81.1,73.0,30.16,SSE,148,2.0,6.0,75,0.00,,,0.01,weatherlink.com 1.10,2013-08-20 19:25:00,
2013-08-20 15:40:00,81.6,73.0,30.15,SSE,152,5.0,5.0,76,0.00,,,0.01,weatherlink.com 1.10,2013-08-20 19:40:00,
2013-08-20 15:55:00,82.2,74.0,30.15,SE,143,4.0,7.0,75,0.00,,,0.01,weatherlink.com 1.10,2013-08-20 19:55:00,
2013-08-20 16:10:00,82.0,74.0,30.14,SSE,151,4.0,6.0,76,0.00,,,0.01,weatherlink.com 1.10,2013-08-20 20:10:00,
2013-08-20 16:25:00,81.1,73.0,30.14,SE,145,3.0,5.0,76,0.00,,,0.01,weatherlink.com 1.10,2013-08-20 20:25:00,
2013-08-20 16:40:00,81.8,73.0,30.14,SE,145,2.0,3.0,75,0.00,,,0.01,weatherlink.com 1.10,2013-08-20 20:40:00,
2013-08-20 16:55:00,82.5,74.0,30.14,East,97,4.0,6.0,75,0.00,,,0.01,weatherlink.com 1.10,2013-08-20 20:55:00,
2013-08-20 17:10:00,81.8,73.0,30.14,SE,144,3.0,4.0,75,0.00,,,0.01,weatherlink.com 1.10,2013-08-20 21:10:00,
2013-08-20 17:25:00,81.1,73.0,30.14,ESE,112,1.0,4.0,77,0.00,,,0.01,weatherlink.com 1.10,2013-08-20 21:25:00,
2013-08-20 17:40:00,81.5,74.0,30.14,East,89,2.0,7.0,77,0.00,,,0.01,weatherlink.com 1.10,2013-08-20 21:40:00,
2013-08-20 17:55:00,80.9,74.0,30.14,SSE,162,2.0,6.0,79,0.00,,,0.01,weatherlink.com 1.10,2013-08-20 21:55:00,
2013-08-20 18:10:00,79.8,73.0,30.14,SE,134,2.0,6.0,79,0.00,,,0.01,weatherlink.com 1.10,2013-08-20 22:10:00,
2013-08-20 18:25:00,79.6,74.0,30.14,SE,135,2.0,2.0,82,0.00,,,0.01,weatherlink.com 1.10,2013-08-20 22:25:00,
2013-08-20 18:40:00,79.3,74.0,30.14,SE,135,0.0,2.0,84,0.00,,,0.01,weatherlink.com 1.10,2013-08-20 22:40:00,
2013-08-20 18:55:00,78.6,74.0,30.14,SE,135,1.0,3.0,86,0.00,,,0.01,weatherlink.com 1.10,2013-08-20 22:55:00,
2013-08-20 19:10:00,78.5,74.0,30.14,SSE,162,1.0,2.0,87,0.00,,,0.01,weatherlink.com 1.10,2013-08-20 23:10:00,
2013-08-20 19:25:00,78.3,75.0,30.14,SSE,162,0.0,1.0,88,0.00,,,0.01,weatherlink.com 1.10,2013-08-20 23:25:00,
2013-08-20 19:40:00,77.6,75.0,30.15,SSE,162,0.0,0.0,90,0.00,,,0.01,weatherlink.com 1.10,2013-08-20 23:40:00,
2013-08-20 19:55:00,76.6,74.0,30.15,SSE,162,0.0,1.0,91,0.00,,,0.01,weatherlink.com 1.10,2013-08-20 23:55:00,
2013-08-20 20:10:00,75.2,73.0,30.15,SSE,162,0.0,1.0,93,0.00,,,0.01,weatherlink.com 1.10,2013-08-21 00:10:00,
2013-08-20 20:26:00,74.4,73.0,30.16,SSE,162,0.0,0.0,94,0.00,,,0.01,weatherlink.com 1.10,2013-08-21 00:26:00,
2013-08-20 20:41:00,73.9,72.0,30.16,WSW,244,0.0,0.0,94,0.00,,,0.01,weatherlink.com 1.10,2013-08-21 00:41:00,
2013-08-20 20:56:00,73.5,72.0,30.16,WSW,244,0.0,0.0,94,0.00,,,0.01,weatherlink.com 1.10,2013-08-21 00:56:00,
2013-08-20 21:11:00,73.1,72.0,30.16,WSW,244,0.0,0.0,95,0.00,,,0.01,weatherlink.com 1.10,2013-08-21 01:11:00,
2013-08-20 21:26:00,72.8,71.0,30.16,WSW,244,0.0,0.0,95,0.00,,,0.01,weatherlink.com 1.10,2013-08-21 01:26:00,
2013-08-20 21:42:00,72.1,71.0,30.17,WSW,244,0.0,0.0,95,0.00,,,0.01,weatherlink.com 1.10,2013-08-21 01:42:00,
2013-08-20 21:56:00,72.0,71.0,30.17,WSW,244,0.0,0.0,95,0.00,,,0.01,weatherlink.com 1.10,2013-08-21 01:56:00,
2013-08-20 22:11:00,71.7,70.0,30.17,WSW,244,0.0,0.0,95,0.00,,,0.01,weatherlink.com 1.10,2013-08-21 02:11:00,
2013-08-20 22:26:00,71.3,70.0,30.18,WSW,244,0.0,0.0,95,0.00,,,0.01,weatherlink.com 1.10,2013-08-21 02:26:00,
2013-08-20 22:41:00,71.2,70.0,30.17,WSW,244,0.0,0.0,95,0.00,,,0.01,weatherlink.com 1.10,2013-08-21 02:41:00,
2013-08-20 22:56:00,70.8,69.0,30.17,WSW,244,0.0,0.0,95,0.00,,,0.01,weatherlink.com 1.10,2013-08-21 02:56:00,
2013-08-20 23:11:00,70.3,69.0,30.18,WSW,244,0.0,0.0,95,0.00,,,0.01,weatherlink.com 1.10,2013-08-21 03:11:00,
2013-08-20 23:26:00,70.1,69.0,30.18,WSW,244,0.0,0.0,96,0.00,,,0.01,weatherlink.com 1.10,2013-08-21 03:26:00,
2013-08-20 23:41:00,70.2,69.0,30.18,WSW,244,0.0,0.0,96,0.00,,,0.01,weatherlink.com 1.10,2013-08-21 03:41:00,
2013-08-20 23:56:00,69.9,69.0,30.18,WSW,244,0.0,0.0,96,0.00,,,0.01,weatherlink.com 1.10,2013-08-21 03:56:00,